Weather History for Paris / Charles De Gaulle, France

Change the Weather History Date:

Tuesday, December 11, 2012

  Actual Average Record
Temperature  
Mean Temperature 32 °F -  
Max Temperature 37 °F 43 °F 59 °F (1997)
Min Temperature 28 °F 34 °F 26 °F (2005)
Degree Days  
Heating Degree Days 32    
Moisture  
Dew Point 29 °F    
Average Humidity 83    
Maximum Humidity 93    
Minimum Humidity 60    
Precipitation  
Precipitation 0.00 in - - ()
Sea Level Pressure  
Sea Level Pressure 30.31 in    
Wind  
Wind Speed 6 mph ()    
Max Wind Speed 9 mph    
Max Gust Speed -    
Visibility 5.9 miles    
Events Rain    
Averages and records for this station are not official NWS values.
T = Trace of Precipitation, MM = Missing Value Source: Averaged Metar Reports

Daily Weather History Graph

Daily Weather History Graph

Search for Another Location

Airport:

Trip Planner

Search our weather history database for the weather conditions in past years. The results will help you decide how hot, cold, wet, or windy it might be!

Date:

Astronomy

Dec. 11, 2012 Rise Set
Actual Time 8:34 AM CET 4:52 PM CET
Civil Twilight 7:56 AM CET 5:29 PM CET
Nautical Twilight 7:16 AM CET 6:09 PM CET
Astronomical Twilight 6:37 AM CET 6:48 PM CET
Moon 6:04 AM CET (12/11) 3:22 PM CET (12/11)
Length of Visible Light 9h 32m
Length of Day
8h 18m
Waning Crescent, 5% of the Moon is Illuminated
Dec 11
Waning Crescent
Dec 13
New
Dec 20
First Quarter
Dec 28
Full
Jan 5
Last Quarter

Hourly Weather History & Observations

Time (CET) Temp. Windchill Dew Point Humidity Pressure Visibility Wind Dir Wind Speed Gust Speed Precip Events Conditions
12:00 AM 37.4 °F 31.4 °F 33.8 °F 87% 30.21 in - North 8.1 mph - N/A   Clear
12:30 AM 37.4 °F 30.8 °F 33.8 °F 87% 30.21 in - North 9.2 mph - N/A   Clear
1:00 AM 37.4 °F 31.4 °F 33.8 °F 87% 30.21 in - Variable 8.1 mph - N/A   Clear
1:30 AM 37.4 °F 30.8 °F 33.8 °F 87% 30.24 in 6.2 mi North 9.2 mph - N/A   Mostly Cloudy
2:00 AM 35.6 °F 29.2 °F 33.8 °F 93% 30.24 in 6.2 mi Variable 8.1 mph - N/A Rain Light Rain Showers
2:30 AM 35.6 °F 30.7 °F 33.8 °F 93% 30.24 in 6.2 mi Variable 5.8 mph - N/A   Mostly Cloudy
3:00 AM 35.6 °F 30.7 °F 32.0 °F 87% 30.24 in 6.2 mi Variable 5.8 mph - N/A   Mostly Cloudy
3:30 AM 35.6 °F 31.7 °F 33.8 °F 93% 30.27 in 6.2 mi Variable 4.6 mph - N/A   Mostly Cloudy
4:00 AM 35.6 °F 30.7 °F 33.8 °F 93% 30.27 in 6.2 mi Variable 5.8 mph - N/A   Mostly Cloudy
4:30 AM 33.8 °F 27.7 °F 32.0 °F 93% 30.27 in 6.2 mi NNW 6.9 mph - N/A   Mostly Cloudy
5:00 AM 33.8 °F 29.6 °F 30.2 °F 87% 30.27 in - NW 4.6 mph - N/A   Clear
5:30 AM 33.8 °F 27.7 °F 30.2 °F 87% 30.27 in - North 6.9 mph - N/A   Clear
6:00 AM 33.8 °F 28.6 °F 32.0 °F 93% 30.27 in - North 5.8 mph - N/A   Clear
6:30 AM 33.8 °F 28.6 °F 32.0 °F 93% 30.27 in 6.2 mi NNW 5.8 mph - N/A   Scattered Clouds
7:00 AM 32.0 °F 25.6 °F 30.2 °F 93% 30.30 in 6.2 mi NNW 6.9 mph - N/A   Partly Cloudy
7:30 AM 32.0 °F 26.4 °F 30.2 °F 93% 30.30 in - Variable 5.8 mph - N/A   Clear
8:00 AM 32.0 °F 26.4 °F 30.2 °F 93% 30.30 in - Variable 5.8 mph - N/A   Clear
8:30 AM 32.0 °F 27.5 °F 30.2 °F 93% 30.30 in - NNW 4.6 mph - N/A   Clear
9:00 AM 32.0 °F 27.5 °F 30.2 °F 93% 30.33 in 5.0 mi Variable 4.6 mph - N/A   Unknown
9:30 AM 32.0 °F 27.5 °F 30.2 °F 93% 30.33 in 2.5 mi North 4.6 mph - N/A   Mist
10:00 AM 32.0 °F 27.5 °F 30.2 °F 93% 30.33 in 3.7 mi NW 4.6 mph - N/A   Unknown
10:30 AM 32.0 °F 28.7 °F 30.2 °F 93% 30.33 in 5.0 mi NNW 3.5 mph - N/A   Unknown
11:00 AM 33.8 °F 28.6 °F 32.0 °F 93% 30.33 in - NNW 5.8 mph - N/A   Clear
11:30 AM 35.6 °F 30.7 °F 30.2 °F 81% 30.33 in 6.2 mi Variable 5.8 mph - N/A   Scattered Clouds
12:00 PM 35.6 °F 29.2 °F 30.2 °F 81% 30.33 in 6.2 mi Variable 8.1 mph - N/A   Scattered Clouds
12:30 PM 35.6 °F 28.6 °F 30.2 °F 81% 30.33 in 6.2 mi Variable 9.2 mph - N/A   Scattered Clouds
1:00 PM 37.4 °F 30.8 °F 28.4 °F 70% 30.33 in 6.2 mi NNE 9.2 mph - N/A   Scattered Clouds
1:30 PM 37.4 °F 30.8 °F 28.4 °F 70% 30.33 in 6.2 mi North 9.2 mph - N/A   Scattered Clouds
2:00 PM 37.4 °F 31.4 °F 26.6 °F 65% 30.33 in 6.2 mi Variable 8.1 mph - N/A   Scattered Clouds
2:30 PM 37.4 °F 32.1 °F 24.8 °F 60% 30.33 in 6.2 mi Variable 6.9 mph - N/A   Scattered Clouds
3:00 PM 37.4 °F 32.1 °F 24.8 °F 60% 30.33 in 6.2 mi NNE 6.9 mph - N/A   Partly Cloudy
3:30 PM 37.4 °F 30.8 °F 24.8 °F 60% 30.33 in 6.2 mi NNE 9.2 mph - N/A   Partly Cloudy
4:00 PM 35.6 °F 29.2 °F 24.8 °F 65% 30.33 in 6.2 mi North 8.1 mph - N/A   Partly Cloudy
4:30 PM 35.6 °F 29.9 °F 24.8 °F 65% 30.33 in 6.2 mi North 6.9 mph - N/A   Partly Cloudy
5:00 PM 33.8 °F 28.6 °F 24.8 °F 70% 30.33 in 6.2 mi NE 5.8 mph - N/A   Partly Cloudy
5:30 PM 33.8 °F 27.7 °F 24.8 °F 70% 30.33 in 6.2 mi NE 6.9 mph - N/A   Partly Cloudy
6:00 PM 32.0 °F 27.5 °F 24.8 °F 75% 30.33 in - North 4.6 mph - N/A   Clear
6:30 PM 32.0 °F 26.4 °F 24.8 °F 75% 30.33 in - NNE 5.8 mph - N/A   Clear
7:00 PM 32.0 °F 27.5 °F 24.8 °F 75% 30.36 in 6.2 mi NNE 4.6 mph - N/A   Scattered Clouds
7:30 PM 32.0 °F 25.6 °F 26.6 °F 80% 30.36 in 6.2 mi NE 6.9 mph - N/A   Partly Cloudy
8:00 PM 30.2 °F 25.4 °F 24.8 °F 80% 30.36 in - NE 4.6 mph - N/A   Clear
8:30 PM 30.2 °F 25.4 °F 24.8 °F 80% 30.36 in - ENE 4.6 mph - N/A   Clear
9:00 PM 30.2 °F 25.4 °F 24.8 °F 80% 30.36 in - NE 4.6 mph - N/A   Clear
9:30 PM 30.2 °F 25.4 °F 24.8 °F 80% 30.36 in 6.2 mi ENE 4.6 mph - N/A   Partly Cloudy
10:00 PM 28.4 °F 24.6 °F 24.8 °F 86% 30.33 in - East 3.5 mph - N/A   Clear
10:30 PM 28.4 °F 24.6 °F 24.8 °F 86% 30.36 in - ENE 3.5 mph - N/A   Clear
11:00 PM 28.4 °F 23.3 °F 24.8 °F 86% 30.33 in - ENE 4.6 mph - N/A   Clear
11:30 PM 28.4 °F - 24.8 °F 86% 30.33 in - East 1.2 mph - N/A   Clear